Location: Caltech
(34.1382°N, 118.1253°W)
Time: 03:54:21
(UTC-07:00)

SO-50 - Visible Passes

Search period start: 23 May 2017 00:00
Search period end: 02 June 2017 00:00
Orbit: 623 x 665 km, 64.6° (Epoch: 22 May)

Date Brightness Start Highest point End Pass type
(mag) Time Alt. Az. Time Alt. Az. Time Alt. Az.
23 May ? 01:07:53 11° NW 01:07:56 11° NW 01:09:05 10° NNW visible
23 May ? 23:54:04 26° NNW 23:54:04 26° NNW 23:56:31 10° NNE visible
24 May ? 22:40:05 21° NE 22:40:05 21° NE 22:41:38 10° NE visible
25 May ? 00:17:38 15° NW 00:17:55 16° NW 00:20:40 10° NNW visible
25 May ? 23:03:24 45° NNW 23:03:24 45° NNW 23:06:56 10° NNE visible
26 May ? 21:48:47 29° E 21:48:47 29° E 21:51:36 10° NE visible
26 May ? 23:26:17 18° W 23:27:58 22° NW 23:31:32 10° N visible
27 May ? 22:10:53 37° SSW 22:12:39 85° WNW 22:17:14 10° NNE visible
28 May ? 20:54:14 10° SSE 20:57:49 22° ESE 21:01:21 10° ENE visible
28 May ? 22:33:57 10° WSW 22:38:04 32° NW 22:42:09 10° N visible
29 May ? 21:18:22 10° SSW 21:22:54 62° ESE 21:27:25 10° NE visible
29 May ? 23:01:21 10° W 23:03:44 14° NW 23:06:07 10° NNW visible
30 May ? 21:43:46 10° SW 21:48:12 48° WNW 21:52:37 10° NNE visible
31 May ? 20:28:54 10° S 20:33:11 39° ESE 20:37:26 10° NE visible
31 May ? 22:10:24 10° W 22:13:45 20° NW 22:17:06 10° N visible
01 Jun ? 05:04:43 10° NNE 05:07:14 14° NE 05:09:44 10° E visible
01 Jun ? 20:53:48 10° SW 20:58:24 74° WNW 21:02:57 10° NNE visible
